DW7779 Weather Reports


Display with metric or nautical units.
time (UTC)temp
F
wind
direction
speed
MPH
gust
MPH
rain 1hr
in
rain 24hr
in
rain mn
in
humidity
%
barometer
mb
20260507051543 55 4.0 9.0 0.00 0.17 0.10 69 1021.2
20260507050043 54 2.0 5.0 0.02 0.17 0.10 75 1021.1
20260507044556 53 1.0 5.0 0.02 0.17 0.10 78 1021.0
20260507043042 52 0.0 4.0 0.02 0.17 0.10 82 1021.1
20260507041545 51 0.0 2.0 0.02 0.17 0.10 84 1021.4
20260507040045 54 3.0 7.0 0.00 0.15 0.09 71 1021.6
20260507034544 55 1.0 4.0 0.00 0.15 0.09 70 1021.4
20260507033048 55 3.0 7.0 0.00 0.15 0.09 69 1021.4
20260507031545 55 3.0 6.0 0.00 0.15 0.09 72 1021.6
20260507030033 53 2.0 6.0 0.00 0.15 0.09 74 1021.6
20260507024529 53 1.0 5.0 0.00 0.15 0.09 77 1021.7
20260507023028 53 2.0 6.0 0.00 0.15 0.09 73 1021.9
20260507021526 52 2.0 5.0 0.00 0.15 0.09 73 1022.0
20260507020025 52 2.0 5.0 0.00 0.15 0.09 73 1022.0
20260507014521 51 0.0 3.0 0.00 0.15 0.09 79 1022.2
20260507013018 50 1.0 6.0 0.00 0.15 0.09 82 1022.4
20260507011527 51 2.0 7.0 0.00 0.15 0.09 76 1022.2
20260507010013 51 2.0 5.0 0.00 0.15 0.09 78 1021.9
20260507004508 49 1.0 5.0 0.00 0.15 0.09 82 1021.9
20260507003005 48 1.0 5.0 0.01 0.15 0.09 85 1022.0
20260507001503 47 0.0 2.0 0.01 0.15 0.09 88 1021.9
20260507000200 46 0.0 3.0 0.01 0.15 0.09 88 1022.0
20260506234605 45 1.0 5.0 0.01 0.15 0.09 91 1021.8
20260506233057 45 1.0 5.0 0.00 0.14 0.08 94 1021.6
20260506231555 44 1.0 5.0 0.00 0.14 0.08 96 1021.5
20260506230049 44 1.0 6.0 0.00 0.14 0.08 96 1021.3
20260506224548 43 2.0 4.0 0.00 0.14 0.08 96 1021.4
20260506223045 42 1.0 5.0 0.00 0.14 0.08 96 1021.0
20260506221546 41 0.0 6.0 0.00 0.14 0.08 96 1020.8
20260506220042 41 0.0 6.0 0.00 0.14 0.08 96 1020.5
20260506214545 41 2.0 5.0 0.00 0.14 0.08 96 1020.5
20260506213040 40 2.0 5.0 0.00 0.14 0.08 96 1020.3
20260506211535 40 1.0 7.0 0.00 0.14 0.08 95 1020.0
20260506210036 40 1.0 3.0 0.00 0.14 0.08 96 1019.9
20260506204535 40 2.0 6.0 0.00 0.14 0.08 95 1019.4
20260506203037 40 3.0 8.0 0.00 0.14 0.08 95 1019.2
20260506201536 40 1.0 5.0 0.00 0.14 0.08 95 1019.2
20260506200028 40 1.0 7.0 0.00 0.14 0.08 95 1019.1
20260506194526 40 2.0 9.0 0.00 0.14 0.08 95 1018.8
20260506193023 40 2.0 8.0 0.03 0.14 0.08 95 1018.7
20260506191522 40 3.0 7.0 0.05 0.14 0.08 94 1018.6
20260506190020 41 0.0 5.0 0.06 0.14 0.08 93 1018.9
20260506184517 41 3.0 11.0 0.06 0.14 0.08 91 1018.9
20260506183013 42 2.0 7.0 0.02 0.11 0.05 89 1018.9
20260506181512 42 0.0 3.0 0.01 0.09 0.03 88 1018.8
20260506180013 42 1.0 4.0 0.00 0.09 0.02 87 1018.6
20260506174507 42 1.0 7.0 0.00 0.09 0.02 86 1018.2
20260506173016 42 1.0 9.0 0.00 0.09 0.02 86 1017.6
20260506171503 42 2.0 7.0 0.00 0.09 0.02 86 1017.7
20260506170001 42 2.0 6.0 0.00 0.09 0.02 85 1018.2
20260506164501 42 1.0 8.0 0.00 0.09 0.02 85 1018.2
20260506163107 42 1.0 5.0 0.00 0.09 0.02 86 1018.3
20260506161639 42 1.0 7.0 0.00 0.09 0.02 85 1018.3
20260506160108 42 2.0 7.0 0.00 0.09 0.02 85 1018.3
20260506154555 42 1.0 6.0 0.01 0.09 0.02 89 1018.2
20260506153058 41 1.0 2.0 0.01 0.09 0.02 90 1018.1
20260506151551 42 1.0 3.0 0.02 0.09 0.02 89 1018.2
20260506150048 43 2.0 4.0 0.02 0.09 0.02 88 1018.4
20260506144546 43 1.0 6.0 0.02 0.08 0.02 85 1017.9
20260506143045 43 5.0 10.0 0.02 0.08 0.02 85 1017.8
20260506141540 43 1.0 5.0 0.02 0.07 0.01 88 1018.1
20260506140038 43 2.0 5.0 0.01 0.06 0.00 87 1018.2
20260506134537 44 0.0 2.0 0.00 0.06 0.06 84 1017.9
20260506133035 43 1.0 3.0 0.00 0.06 0.06 83 1017.6
20260506131545 44 2.0 5.0 0.00 0.06 0.06 82 1017.2
20260506130040 44 2.0 6.0 0.00 0.06 0.06 82 1017.1
20260506124531 44 3.0 9.0 0.00 0.06 0.06 83 1017.0
20260506123029 45 2.0 10.0 0.00 0.06 0.06 84 1017.1
20260506121528 44 3.0 7.0 0.00 0.06 0.06 84 1017.2
20260506120028 45 1.0 5.0 0.00 0.06 0.06 82 1017.2
20260506114521 46 4.0 12.0 0.00 0.06 0.06 80 1017.3
20260506113018 48 2.0 8.0 0.00 0.06 0.06 84 1017.0
20260506111516 47 2.0 7.0 0.00 0.06 0.06 85 1016.7
20260506110020 48 2.0 9.0 0.01 0.06 0.06 86 1016.5
20260506104514 48 1.0 6.0 0.01 0.06 0.06 87 1016.4
20260506103012 48 1.0 5.0 0.01 0.06 0.06 89 1016.4
20260506101522 49 2.0 8.0 0.02 0.06 0.06 89 1016.5
20260506100011 49 3.0 8.0 0.01 0.05 0.05 88 1016.5
20260506094520 49 2.0 6.0 0.01 0.05 0.05 90 1016.2
20260506093014 50 4.0 10.0 0.00 0.04 0.04 89 1015.9
20260506091513 51 1.0 10.0 0.00 0.04 0.04 90 1015.5
20260506090009 52 2.0 8.0 0.00 0.04 0.04 88 1015.2
20260506084510 53 2.0 7.0 0.00 0.04 0.04 87 1015.2
20260506083007 53 5.0 13.0 0.00 0.04 0.04 87 1014.8
20260506081507 54 1.0 6.0 0.00 0.04 0.04 85 1014.4
20260506073009 57 4.0 13.0 0.00 0.04 0.04 86 1013.0
20260506071505 58 5.0 11.0 0.00 0.04 0.04 87 1012.9
20260506061502 58 5.0 11.0 0.04 0.04 0.04 87 1013.5